Location: Risskov
(56.1972°N, 10.2480°E)
Time: 12:48:54
(UTC+00:00)

GP-B - Pass Details

Date: 05 July 2020
Orbit: 631 x 635 km, 89.8° (Epoch: 06 August)

Event Time Altitude Azimuth Distance (km) Brightness Sun altitude
Rises 23:38:33 0° 355° (N) 2,947 8.6 -11.1°
Reaches altitude 10° 23:40:56 10° 347° (NNW) 2,032 7.0 -11.1°
Maximum altitude 23:44:57 34° 283° (WNW) 1,055 4.3 -11.0°
Enters shadow 23:48:51 11° 219° (SW) 1,985 5.2 -11.0°
